When you browse on this site, cookies collect data to enhance your experience and personalize the content and advertising you see.
Visit our Privacy Policy to learn more. By continuing to use the site, you agree to this use of cookies and data.
  • In Romania
  • List of Countries
  • For 7 days
  • Water Temperature
  • Weather Map
  • Weather Widgets
  • user-avatar
    Login

    Hourly Weather Serovo

    Today, 20 October, Sunday

    Time Temperature Precipitation Wind Pressure Humidity
    00:00 +12°C° 0 mm 2 mps 745 mmHg 98%
    01:00 +12°C° 0 mm 1 mps 745 mmHg 98%
    02:00 +11°C° 0 mm 1 mps 745 mmHg 98%
    03:00 +11°C° 0.1 mm 1 mps 745 mmHg 98%
    04:00 +11°C° 0.1 mm 1 mps 745 mmHg 98%
    05:00 +11°C° 0.1 mm 1 mps 745 mmHg 98%
    06:00 +11°C° 0 mm 1 mps 745 mmHg 98%
    07:00 +12°C° 0 mm 1 mps 746 mmHg 97%
    08:00 +12°C° 0 mm 1 mps 746 mmHg 97%
    09:00 +13°C° 0 mm 1 mps 746 mmHg 94%
    10:00 +14°C° 0 mm 1 mps 746 mmHg 90%
    11:00 +15°C° 0 mm 1 mps 746 mmHg 87%
    12:00 +15°C° 0 mm 1 mps 746 mmHg 86%
    13:00 +15°C° 0 mm 1 mps 746 mmHg 85%
    14:00 +16°C° 0 mm 1 mps 746 mmHg 85%
    15:00 +15°C° 0 mm 1 mps 746 mmHg 88%
    16:00 +14°C° 0 mm 1 mps 746 mmHg 91%
    17:00 +14°C° 0 mm 1 mps 746 mmHg 94%
    18:00 +13°C° 0 mm 2 mps 746 mmHg 94%
    19:00 +13°C° 0 mm 2 mps 746 mmHg 95%
    20:00 +13°C° 0 mm 2 mps 746 mmHg 95%
    21:00 +12°C° 0 mm 2 mps 745 mmHg 95%
    22:00 +12°C° 0 mm 2 mps 745 mmHg 95%
    23:00 +11°C° 0 mm 3 mps 745 mmHg 95%

    Tomorrow, 21 October, Monday

    Time Temperature Precipitation Wind Pressure Humidity
    00:00 +11°C° 0 mm 3 mps 745 mmHg 96%
    01:00 +11°C° 0 mm 3 mps 745 mmHg 96%
    02:00 +11°C° 0 mm 3 mps 745 mmHg 96%
    03:00 +11°C° 0 mm 3 mps 744 mmHg 96%
    04:00 +11°C° 0 mm 3 mps 744 mmHg 96%
    05:00 +11°C° 0 mm 3 mps 744 mmHg 96%
    06:00 +11°C° 0.1 mm 3 mps 744 mmHg 95%
    07:00 +11°C° 0.1 mm 3 mps 744 mmHg 95%
    08:00 +11°C° 0.1 mm 3 mps 744 mmHg 94%
    09:00 +12°C° 0.5 mm 3 mps 744 mmHg 94%
    10:00 +12°C° 0.5 mm 3 mps 745 mmHg 94%
    11:00 +12°C° 0.5 mm 3 mps 745 mmHg 93%
    12:00 +12°C° 0.2 mm 3 mps 745 mmHg 92%
    13:00 +12°C° 0.2 mm 2 mps 746 mmHg 90%
    14:00 +12°C° 0.2 mm 2 mps 746 mmHg 89%
    15:00 +12°C° 0 mm 2 mps 746 mmHg 90%
    16:00 +10°C° 0 mm 2 mps 747 mmHg 92%
    17:00 +10°C° 0 mm 2 mps 747 mmHg 93%
    18:00 +9°C° 0 mm 2 mps 748 mmHg 94%
    19:00 +8°C° 0 mm 2 mps 748 mmHg 94%
    20:00 +7°C° 0 mm 2 mps 749 mmHg 94%
    21:00 +8°C° 0 mm 1 mps 749 mmHg 95%
    22:00 +7°C° 0 mm 1 mps 749 mmHg 95%
    23:00 +6°C° 0 mm 1 mps 749 mmHg 95%

    Day after tomorrow, 22 October, Tuesday

    Time Temperature Precipitation Wind Pressure Humidity
    00:00 +6°C° 0 mm 1 mps 749 mmHg 95%
    01:00 +6°C° 0 mm 1 mps 750 mmHg 95%
    02:00 +4°C° 0 mm 0 mps 750 mmHg 95%
    03:00 +5°C° 0 mm 1 mps 750 mmHg 95%
    04:00 +5°C° 0 mm 1 mps 750 mmHg 96%
    05:00 +5°C° 0 mm 1 mps 750 mmHg 96%
    06:00 +5°C° 0 mm 1 mps 750 mmHg 95%
    07:00 +5°C° 0 mm 1 mps 750 mmHg 95%
    08:00 +5°C° 0 mm 1 mps 751 mmHg 94%
    09:00 +6°C° 0 mm 2 mps 750 mmHg 89%
    10:00 +7°C° 0 mm 2 mps 750 mmHg 85%
    11:00 +9°C° 0 mm 2 mps 750 mmHg 80%
    12:00 +10°C° 0 mm 2 mps 750 mmHg 79%
    13:00 +10°C° 0 mm 3 mps 749 mmHg 77%
    14:00 +11°C° 0 mm 3 mps 749 mmHg 76%
    15:00 +11°C° 0 mm 3 mps 749 mmHg 80%
    16:00 +10°C° 0 mm 3 mps 748 mmHg 84%
    17:00 +10°C° 0 mm 3 mps 748 mmHg 89%
    18:00 +10°C° 0 mm 4 mps 747 mmHg 90%
    19:00 +11°C° 0 mm 4 mps 747 mmHg 91%
    20:00 +11°C° 0 mm 4 mps 747 mmHg 93%
    21:00 +11°C° 0 mm 4 mps 746 mmHg 93%
    22:00 +11°C° 0 mm 4 mps 746 mmHg 94%
    23:00 +11°C° 0 mm 4 mps 746 mmHg 94%

    23 October, Wednesday

    Time Temperature Precipitation Wind Pressure Humidity
    00:00 +11°C° 0 mm 4 mps 745 mmHg 95%
    01:00 +11°C° 0 mm 3 mps 745 mmHg 95%
    02:00 +11°C° 0 mm 3 mps 745 mmHg 95%
    03:00 +11°C° 0 mm 3 mps 745 mmHg 96%
    04:00 +11°C° 0 mm 3 mps 745 mmHg 96%
    05:00 +10°C° 0 mm 3 mps 745 mmHg 96%
    06:00 +11°C° 0 mm 3 mps 745 mmHg 95%
    07:00 +11°C° 0 mm 3 mps 745 mmHg 94%
    08:00 +11°C° 0 mm 3 mps 745 mmHg 93%
    09:00 +11°C° 0 mm 3 mps 745 mmHg 90%
    10:00 +12°C° 0 mm 2 mps 745 mmHg 88%
    11:00 +12°C° 0 mm 2 mps 745 mmHg 86%
    12:00 +12°C° 0 mm 2 mps 745 mmHg 85%
    13:00 +12°C° 0 mm 2 mps 745 mmHg 85%
    14:00 +12°C° 0 mm 2 mps 745 mmHg 84%
    15:00 +10°C° 0 mm 2 mps 745 mmHg 84%
    16:00 +11°C° 0 mm 1 mps 745 mmHg 84%
    17:00 +11°C° 0 mm 1 mps 745 mmHg 85%
    18:00 +11°C° 0 mm 1 mps 746 mmHg 85%
    19:00 +10°C° 0 mm 1 mps 746 mmHg 86%
    20:00 +10°C° 0 mm 1 mps 746 mmHg 86%
    21:00 +9°C° 0 mm 1 mps 746 mmHg 87%
    22:00 +9°C° 0 mm 1 mps 746 mmHg 87%
    23:00 +9°C° 0 mm 1 mps 747 mmHg 88%

    24 October, Thursday

    Time Temperature Precipitation Wind Pressure Humidity
    00:00 +8°C° 0 mm 1 mps 747 mmHg 89%
    01:00 +7°C° 0 mm 1 mps 747 mmHg 91%
    02:00 +7°C° 0 mm 1 mps 747 mmHg 93%
    03:00 +7°C° 0 mm 1 mps 747 mmHg 92%
    04:00 +7°C° 0 mm 1 mps 747 mmHg 92%
    05:00 +7°C° 0 mm 1 mps 747 mmHg 91%
    06:00 +7°C° 0 mm 1 mps 747 mmHg 91%
    07:00 +8°C° 0 mm 1 mps 747 mmHg 91%
    08:00 +8°C° 0 mm 1 mps 747 mmHg 91%
    09:00 +8°C° 0 mm 1 mps 747 mmHg 87%
    10:00 +9°C° 0 mm 1 mps 747 mmHg 83%
    11:00 +10°C° 0 mm 1 mps 748 mmHg 79%
    12:00 +9°C° 0 mm 2 mps 748 mmHg 78%
    13:00 +10°C° 0 mm 2 mps 747 mmHg 77%
    14:00 +10°C° 0 mm 2 mps 747 mmHg 76%
    15:00 +9°C° 0 mm 2 mps 747 mmHg 81%
    16:00 +9°C° 0 mm 1 mps 747 mmHg 85%
    17:00 +8°C° 0 mm 1 mps 747 mmHg 90%
    18:00 +8°C° 0 mm 1 mps 747 mmHg 91%
    19:00 +8°C° 0 mm 1 mps 748 mmHg 92%
    20:00 +7°C° 0 mm 1 mps 748 mmHg 93%
    21:00 +7°C° 0 mm 1 mps 748 mmHg 94%
    22:00 +7°C° 0 mm 1 mps 748 mmHg 94%
    23:00 +6°C° 0 mm 1 mps 748 mmHg 94%

    25 October, Friday

    Time Temperature Precipitation Wind Pressure Humidity
    00:00 +6°C° 0 mm 1 mps 748 mmHg 94%
    01:00 +6°C° 0 mm 1 mps 748 mmHg 94%
    02:00 +6°C° 0 mm 1 mps 748 mmHg 94%
    03:00 +5°C° 0 mm 2 mps 747 mmHg 94%
    04:00 +5°C° 0 mm 2 mps 747 mmHg 94%
    05:00 +4°C° 0 mm 2 mps 747 mmHg 94%
    06:00 +5°C° 0 mm 2 mps 747 mmHg 93%
    07:00 +5°C° 0 mm 2 mps 747 mmHg 92%
    08:00 +5°C° 0 mm 2 mps 747 mmHg 91%
    09:00 +5°C° 0 mm 3 mps 747 mmHg 86%
    10:00 +8°C° 0 mm 3 mps 747 mmHg 82%
    11:00 +9°C° 0 mm 3 mps 747 mmHg 77%
    12:00 +10°C° 0 mm 3 mps 746 mmHg 76%
    13:00 +10°C° 0 mm 4 mps 746 mmHg 75%
    14:00 +11°C° 0 mm 4 mps 745 mmHg 74%
    15:00 +10°C° 0 mm 4 mps 745 mmHg 79%
    16:00 +10°C° 0 mm 4 mps 745 mmHg 83%
    17:00 +9°C° 0 mm 3 mps 744 mmHg 88%
    18:00 +9°C° 0 mm 3 mps 744 mmHg 88%
    19:00 +7°C° 0 mm 4 mps 744 mmHg 88%
    20:00 +7°C° 0 mm 4 mps 744 mmHg 88%
    21:00 +8°C° 0 mm 3 mps 744 mmHg 88%
    22:00 +8°C° 0 mm 3 mps 744 mmHg 88%
    23:00 +7°C° 0 mm 3 mps 744 mmHg 88%
    Show more